User: anonymous   Login
Location: Starry Hill Observatory
(46.8582°N, 122.3590°W)
Time: 17:57:11
(UTC-07:00)
Language:

Cosmos 1300 Rocket - Orbit

View from above orbital plane
View from above orbital plane
View from above satellite
View from above satellite

Ground track
Ground track

The orbit data is extracted from the following two-line orbital elements,

1 12786U 81082B   15186.78859513  .00000338  00000-0  37122-4 0  9993
2 12786 082.4901 279.0480 0019218 086.7681 273.5733 14.84486470829114
Epoch (UTC): 05 July 2015 18:55:34
Eccentricity: 0.0019218
inclination: 82.4901°
perigee height: 602 km
apogee height: 628 km
right ascension of ascending node: 279.0480°
argument of perigee: 86.7681°
revolutions per day: 14.84486470
mean anomaly at epoch: 273.5733°
orbit number at epoch: 82911

The dashed part of the orbit path shows where the satellite is in the earth's shadow,  

DLR